User: anonymous   Login
Location: Griffin Ranch
(33.6186°N, 110.6622°W)
Time: 14:03:19
(UTC-07:00)
Language:

Cosmos 1812 - Orbit

View from above orbital plane
View from above orbital plane
View from above satellite
View from above satellite

Ground track
Ground track

The orbit data is extracted from the following two-line orbital elements,

1 17295U 87003A   17113.76425151 +.00001862 +00000-0 +99788-4 0  9998
2 17295 082.5170 198.5403 0002557 344.9680 015.1475 15.14417083650493
Epoch (UTC): 23 April 2017 18:20:31
Eccentricity: 0.0002557
inclination: 82.5170°
perigee height: 521 km
apogee height: 524 km
right ascension of ascending node: 198.5403°
argument of perigee: 344.9680°
revolutions per day: 15.14417083
mean anomaly at epoch: 15.1475°
orbit number at epoch: 65049

The dashed part of the orbit path shows where the satellite is in the earth's shadow,  

DLR